Time,TemperatureF,DewpointF,PressureIn,WindDirection,WindDirectionDegrees,WindSpeedMPH,WindSpeedGustMPH,Humidity,HourlyPrecipIn,Conditions,Clouds,dailyrainin,SoftwareType,DateUTC
2013-02-07 00:00:00,24.2,-4.3,30.26,WNW,292,2.0,7.0,28,0.00,,,-99.99,WeatherLink 5.5,2013-02-07 05:00:00,
2013-02-07 00:01:00,24.4,-4.1,30.26,West,270,6.0,14.0,28,0.00,,,-99.99,WeatherLink 5.5,2013-02-07 05:01:00,
2013-02-07 00:05:00,24.1,-4.4,30.26,WNW,292,3.0,13.0,28,0.00,,,-99.99,WeatherLink 5.5,2013-02-07 05:05:00,
2013-02-07 00:10:00,23.9,-4.5,30.26,WNW,292,2.0,11.0,28,0.00,,,-99.99,WeatherLink 5.5,2013-02-07 05:10:00,
2013-02-07 00:15:00,23.9,-4.5,30.26,WNW,292,2.0,11.0,28,0.00,,,-99.99,WeatherLink 5.5,2013-02-07 05:15:00,
2013-02-07 00:20:00,23.5,-4.9,30.27,West,270,3.0,13.0,28,0.00,,,-99.99,WeatherLink 5.5,2013-02-07 05:20:00,
2013-02-07 00:25:00,23.3,-4.3,30.27,WSW,247,2.0,10.0,29,0.00,,,-99.99,WeatherLink 5.5,2013-02-07 05:25:00,
2013-02-07 00:30:00,23.3,-4.3,30.27,WSW,247,2.0,10.0,29,0.00,,,-99.99,WeatherLink 5.5,2013-02-07 05:30:00,
2013-02-07 00:35:00,23.0,-5.3,30.27,WNW,292,3.0,9.0,28,0.00,,,-99.99,WeatherLink 5.5,2013-02-07 05:35:00,
2013-02-07 00:40:00,22.9,-4.7,30.27,WNW,292,1.0,7.0,29,0.00,,,-99.99,WeatherLink 5.5,2013-02-07 05:40:00,
2013-02-07 00:45:00,22.9,-4.7,30.27,WNW,292,1.0,7.0,29,0.00,,,-99.99,WeatherLink 5.5,2013-02-07 05:45:00,
2013-02-07 00:50:00,22.6,-4.9,30.27,WNW,292,1.0,6.0,29,0.00,,,-99.99,WeatherLink 5.5,2013-02-07 05:50:00,
2013-02-07 00:55:00,22.4,-5.1,30.27,NW,315,2.0,7.0,29,0.00,,,-99.99,WeatherLink 5.5,2013-02-07 05:55:00,
2013-02-07 01:00:00,22.4,-5.1,30.27,NW,315,2.0,7.0,29,0.00,,,-99.99,WeatherLink 5.5,2013-02-07 06:00:00,
2013-02-07 01:05:00,22.2,-4.6,30.28,WSW,247,0.0,4.0,30,0.00,,,-99.99,WeatherLink 5.5,2013-02-07 06:05:00,
2013-02-07 01:10:00,22.1,-4.0,30.28,North,-999,0.0,0.0,31,0.00,,,-99.99,WeatherLink 5.5,2013-02-07 06:10:00,
2013-02-07 01:15:00,22.1,-4.0,30.28,North,-999,0.0,0.0,31,0.00,,,-99.99,WeatherLink 5.5,2013-02-07 06:15:00,
2013-02-07 01:20:00,21.6,-4.4,30.29,North,-999,0.0,0.0,31,0.00,,,-99.99,WeatherLink 5.5,2013-02-07 06:20:00,
2013-02-07 01:25:00,21.5,-3.9,30.29,North,-999,0.0,0.0,32,0.00,,,-99.99,WeatherLink 5.5,2013-02-07 06:25:00,
2013-02-07 01:30:00,21.5,-3.9,30.29,North,-999,0.0,0.0,32,0.00,,,-99.99,WeatherLink 5.5,2013-02-07 06:30:00,
2013-02-07 01:35:00,21.0,-4.3,30.29,North,-999,0.0,0.0,32,0.00,,,-99.99,WeatherLink 5.5,2013-02-07 06:35:00,
2013-02-07 01:40:00,20.8,-4.5,30.29,North,-999,0.0,0.0,32,0.00,,,-99.99,WeatherLink 5.5,2013-02-07 06:40:00,
2013-02-07 01:45:00,20.8,-4.5,30.29,North,-999,0.0,0.0,32,0.00,,,-99.99,WeatherLink 5.5,2013-02-07 06:45:00,
2013-02-07 01:50:00,20.7,-4.6,30.30,North,-999,0.0,0.0,32,0.00,,,-99.99,WeatherLink 5.5,2013-02-07 06:50:00,
2013-02-07 01:55:00,20.5,-4.1,30.30,North,-999,0.0,0.0,33,0.00,,,-99.99,WeatherLink 5.5,2013-02-07 06:55:00,
2013-02-07 02:00:00,20.5,-4.1,30.30,North,-999,0.0,0.0,33,0.00,,,-99.99,WeatherLink 5.5,2013-02-07 07:00:00,
2013-02-07 02:05:00,20.2,-4.4,30.30,North,-999,0.0,0.0,33,0.00,,,-99.99,WeatherLink 5.5,2013-02-07 07:05:00,
2013-02-07 02:10:00,20.0,-3.9,30.30,WSW,247,0.0,1.0,34,0.00,,,-99.99,WeatherLink 5.5,2013-02-07 07:10:00,
2013-02-07 02:15:00,20.0,-3.9,30.30,WSW,247,0.0,1.0,34,0.00,,,-99.99,WeatherLink 5.5,2013-02-07 07:15:00,
2013-02-07 02:20:00,19.9,-4.6,30.31,WSW,247,0.0,1.0,33,0.00,,,-99.99,WeatherLink 5.5,2013-02-07 07:20:00,
2013-02-07 02:25:00,19.7,-4.8,30.31,North,-999,0.0,0.0,33,0.00,,,-99.99,WeatherLink 5.5,2013-02-07 07:25:00,
2013-02-07 02:30:00,19.7,-4.8,30.31,North,-999,0.0,0.0,33,0.00,,,-99.99,WeatherLink 5.5,2013-02-07 07:30:00,
2013-02-07 02:35:00,19.2,-4.0,30.31,North,-999,0.0,0.0,35,0.00,,,-99.99,WeatherLink 5.5,2013-02-07 07:35:00,
2013-02-07 02:40:00,19.1,-4.1,30.31,North,-999,0.0,0.0,35,0.00,,,-99.99,WeatherLink 5.5,2013-02-07 07:40:00,
2013-02-07 02:45:00,19.1,-4.1,30.31,North,-999,0.0,0.0,35,0.00,,,-99.99,WeatherLink 5.5,2013-02-07 07:45:00,
2013-02-07 02:50:00,18.6,-4.6,30.30,North,-999,0.0,0.0,35,0.00,,,-99.99,WeatherLink 5.5,2013-02-07 07:50:00,
2013-02-07 02:55:00,18.5,-5.9,30.30,WSW,247,0.0,1.0,33,0.00,,,-99.99,WeatherLink 5.5,2013-02-07 07:55:00,
2013-02-07 03:00:00,18.5,-5.9,30.30,WSW,247,0.0,1.0,33,0.00,,,-99.99,WeatherLink 5.5,2013-02-07 08:00:00,
2013-02-07 03:05:00,18.3,-4.8,30.31,North,-999,0.0,0.0,35,0.00,,,-99.99,WeatherLink 5.5,2013-02-07 08:05:00,
2013-02-07 03:10:00,18.1,-4.4,30.31,North,-999,0.0,0.0,36,0.00,,,-99.99,WeatherLink 5.5,2013-02-07 08:10:00,
2013-02-07 03:15:00,18.1,-4.4,30.31,North,-999,0.0,0.0,36,0.00,,,-99.99,WeatherLink 5.5,2013-02-07 08:15:00,
2013-02-07 03:20:00,17.8,-3.0,30.33,North,-999,0.0,0.0,39,0.00,,,-99.99,WeatherLink 5.5,2013-02-07 08:20:00,
2013-02-07 03:25:00,17.7,-3.1,30.33,North,-999,0.0,0.0,39,0.00,,,-99.99,WeatherLink 5.5,2013-02-07 08:25:00,
2013-02-07 03:30:00,17.7,-3.1,30.33,North,-999,0.0,0.0,39,0.00,,,-99.99,WeatherLink 5.5,2013-02-07 08:30:00,
2013-02-07 03:35:00,17.0,-2.7,30.34,North,-999,0.0,0.0,41,0.00,,,-99.99,WeatherLink 5.5,2013-02-07 08:35:00,
2013-02-07 03:40:00,16.9,-2.8,30.34,North,-999,0.0,0.0,41,0.00,,,-99.99,WeatherLink 5.5,2013-02-07 08:40:00,
2013-02-07 03:45:00,16.9,-2.8,30.34,North,-999,0.0,0.0,41,0.00,,,-99.99,WeatherLink 5.5,2013-02-07 08:45:00,
2013-02-07 03:50:00,16.7,-2.5,30.35,North,-999,0.0,0.0,42,0.00,,,-99.99,WeatherLink 5.5,2013-02-07 08:50:00,
2013-02-07 03:55:00,16.7,-2.0,30.35,SW,225,0.0,6.0,43,0.00,,,-99.99,WeatherLink 5.5,2013-02-07 08:55:00,
2013-02-07 04:00:00,16.7,-2.0,30.35,SW,225,0.0,6.0,43,0.00,,,-99.99,WeatherLink 5.5,2013-02-07 09:00:00,
2013-02-07 04:05:00,17.2,-4.7,30.36,North,-999,0.0,0.0,37,0.00,,,-99.99,WeatherLink 5.5,2013-02-07 09:05:00,
2013-02-07 04:10:00,17.4,-5.1,30.36,WSW,247,0.0,1.0,36,0.00,,,-99.99,WeatherLink 5.5,2013-02-07 09:10:00,
2013-02-07 04:15:00,17.4,-5.1,30.36,WSW,247,0.0,1.0,36,0.00,,,-99.99,WeatherLink 5.5,2013-02-07 09:15:00,
2013-02-07 04:25:00,17.4,-4.5,30.37,North,-999,0.0,0.0,37,0.00,,,-99.99,WeatherLink 5.5,2013-02-07 09:25:00,
2013-02-07 04:30:00,17.4,-4.5,30.37,North,-999,0.0,0.0,37,0.00,,,-99.99,WeatherLink 5.5,2013-02-07 09:30:00,
2013-02-07 04:35:00,17.5,-5.5,30.37,North,-999,0.0,0.0,35,0.00,,,-99.99,WeatherLink 5.5,2013-02-07 09:35:00,
2013-02-07 04:40:00,17.5,-5.5,30.37,North,-999,0.0,0.0,35,0.00,,,-99.99,WeatherLink 5.5,2013-02-07 09:40:00,
2013-02-07 04:45:00,17.5,-5.5,30.37,North,-999,0.0,0.0,35,0.00,,,-99.99,WeatherLink 5.5,2013-02-07 09:45:00,
2013-02-07 04:50:00,17.4,-5.1,30.37,North,-999,0.0,0.0,36,0.00,,,-99.99,WeatherLink 5.5,2013-02-07 09:50:00,
2013-02-07 04:55:00,17.2,-5.2,30.37,North,-999,0.0,0.0,36,0.00,,,-99.99,WeatherLink 5.5,2013-02-07 09:55:00,
2013-02-07 05:00:00,17.2,-5.2,30.37,North,-999,0.0,0.0,36,0.00,,,-99.99,WeatherLink 5.5,2013-02-07 10:00:00,
2013-02-07 05:05:00,16.9,-4.4,30.37,North,-999,0.0,0.0,38,0.00,,,-99.99,WeatherLink 5.5,2013-02-07 10:05:00,
2013-02-07 05:10:00,16.9,-4.9,30.37,North,-999,0.0,0.0,37,0.00,,,-99.99,WeatherLink 5.5,2013-02-07 10:10:00,
2013-02-07 05:15:00,16.9,-4.9,30.37,North,-999,0.0,0.0,37,0.00,,,-99.99,WeatherLink 5.5,2013-02-07 10:15:00,
2013-02-07 05:20:00,16.6,-5.2,30.38,WSW,247,0.0,1.0,37,0.00,,,-99.99,WeatherLink 5.5,2013-02-07 10:20:00,
2013-02-07 05:25:00,16.6,-5.8,30.38,WSW,247,0.0,1.0,36,0.00,,,-99.99,WeatherLink 5.5,2013-02-07 10:25:00,
2013-02-07 05:30:00,16.6,-5.8,30.38,WSW,247,0.0,1.0,36,0.00,,,-99.99,WeatherLink 5.5,2013-02-07 10:30:00,
2013-02-07 05:35:00,16.7,-6.3,30.38,North,-999,0.0,0.0,35,0.00,,,-99.99,WeatherLink 5.5,2013-02-07 10:35:00,
2013-02-07 05:40:00,16.9,-6.7,30.38,West,270,0.0,1.0,34,0.00,,,-99.99,WeatherLink 5.5,2013-02-07 10:40:00,
2013-02-07 05:45:00,16.9,-6.7,30.38,West,270,0.0,1.0,34,0.00,,,-99.99,WeatherLink 5.5,2013-02-07 10:45:00,
2013-02-07 05:50:00,16.9,-6.1,30.39,North,-999,0.0,0.0,35,0.00,,,-99.99,WeatherLink 5.5,2013-02-07 10:50:00,
2013-02-07 05:55:00,16.9,-6.1,30.39,North,-999,0.0,0.0,35,0.00,,,-99.99,WeatherLink 5.5,2013-02-07 10:55:00,
2013-02-07 06:00:00,16.9,-6.1,30.39,North,-999,0.0,0.0,35,0.00,,,-99.99,WeatherLink 5.5,2013-02-07 11:00:00,
2013-02-07 06:05:00,16.6,-5.2,30.39,North,-999,0.0,0.0,37,0.00,,,-99.99,WeatherLink 5.5,2013-02-07 11:05:00,
2013-02-07 06:10:00,16.4,-4.8,30.39,North,-999,0.0,0.0,38,0.00,,,-99.99,WeatherLink 5.5,2013-02-07 11:10:00,
2013-02-07 06:15:00,16.4,-4.8,30.39,North,-999,0.0,0.0,38,0.00,,,-99.99,WeatherLink 5.5,2013-02-07 11:15:00,
2013-02-07 06:20:00,15.9,-4.7,30.39,North,-999,0.0,0.0,39,0.00,,,-99.99,WeatherLink 5.5,2013-02-07 11:20:00,
2013-02-07 06:25:00,15.8,-3.3,30.39,North,-999,0.0,0.0,42,0.00,,,-99.99,WeatherLink 5.5,2013-02-07 11:25:00,
2013-02-07 06:30:00,15.8,-3.3,30.39,North,-999,0.0,0.0,42,0.00,,,-99.99,WeatherLink 5.5,2013-02-07 11:30:00,
2013-02-07 06:35:00,15.3,-2.8,30.40,North,-999,0.0,0.0,44,0.00,,,-99.99,WeatherLink 5.5,2013-02-07 11:35:00,
2013-02-07 06:40:00,15.1,-2.9,30.40,North,-999,0.0,0.0,44,0.00,,,-99.99,WeatherLink 5.5,2013-02-07 11:40:00,
2013-02-07 06:45:00,15.1,-2.9,30.40,North,-999,0.0,0.0,44,0.00,,,-99.99,WeatherLink 5.5,2013-02-07 11:45:00,
2013-02-07 06:50:00,14.6,-2.5,30.42,North,-999,0.0,0.0,46,0.00,,,-99.99,WeatherLink 5.5,2013-02-07 11:50:00,
2013-02-07 06:55:00,14.6,-2.5,30.42,North,-999,0.0,0.0,46,0.00,,,-99.99,WeatherLink 5.5,2013-02-07 11:55:00,
2013-02-07 07:00:00,14.6,-2.5,30.42,North,-999,0.0,0.0,46,0.00,,,-99.99,WeatherLink 5.5,2013-02-07 12:00:00,
2013-02-07 07:05:00,14.3,-2.3,30.42,North,-999,0.0,0.0,47,0.00,,,-99.99,WeatherLink 5.5,2013-02-07 12:05:00,
2013-02-07 07:10:00,14.3,-2.3,30.42,North,-999,0.0,0.0,47,0.00,,,-99.99,WeatherLink 5.5,2013-02-07 12:10:00,
2013-02-07 07:15:00,14.3,-2.3,30.42,North,-999,0.0,0.0,47,0.00,,,-99.99,WeatherLink 5.5,2013-02-07 12:15:00,
2013-02-07 07:20:00,14.3,-1.4,30.44,North,-999,0.0,0.0,49,0.00,,,-99.99,WeatherLink 5.5,2013-02-07 12:20:00,
2013-02-07 07:25:00,14.3,-1.4,30.44,North,-999,0.0,0.0,49,0.00,,,-99.99,WeatherLink 5.5,2013-02-07 12:25:00,
2013-02-07 07:30:00,14.3,-1.4,30.44,North,-999,0.0,0.0,49,0.00,,,-99.99,WeatherLink 5.5,2013-02-07 12:30:00,
2013-02-07 07:35:00,14.3,-1.4,30.44,West,270,0.0,1.0,49,0.00,,,-99.99,WeatherLink 5.5,2013-02-07 12:35:00,
2013-02-07 07:40:00,14.5,-1.2,30.44,North,-999,0.0,0.0,49,0.00,,,-99.99,WeatherLink 5.5,2013-02-07 12:40:00,
2013-02-07 07:45:00,14.5,-1.2,30.44,North,-999,0.0,0.0,49,0.00,,,-99.99,WeatherLink 5.5,2013-02-07 12:45:00,
2013-02-07 07:50:00,14.9,-2.2,30.45,North,-999,0.0,0.0,46,0.00,,,-99.99,WeatherLink 5.5,2013-02-07 12:50:00,
2013-02-07 07:55:00,15.3,-3.2,30.45,North,-999,0.0,0.0,43,0.00,,,-99.99,WeatherLink 5.5,2013-02-07 12:55:00,
2013-02-07 08:00:00,15.3,-3.2,30.45,North,-999,0.0,0.0,43,0.00,,,-99.99,WeatherLink 5.5,2013-02-07 13:00:00,
2013-02-07 08:05:00,16.2,-5.6,30.46,West,270,0.0,4.0,37,0.00,,,-99.99,WeatherLink 5.5,2013-02-07 13:05:00,
2013-02-07 08:10:00,16.7,-5.7,30.46,WSW,247,1.0,6.0,36,0.00,,,-99.99,WeatherLink 5.5,2013-02-07 13:10:00,
2013-02-07 08:15:00,16.7,-5.7,30.46,WSW,247,1.0,6.0,36,0.00,,,-99.99,WeatherLink 5.5,2013-02-07 13:15:00,
2013-02-07 08:20:00,17.4,-6.2,30.47,WSW,247,1.0,4.0,34,0.00,,,-99.99,WeatherLink 5.5,2013-02-07 13:20:00,
2013-02-07 08:25:00,17.7,-6.6,30.47,WSW,247,1.0,4.0,33,0.00,,,-99.99,WeatherLink 5.5,2013-02-07 13:25:00,
2013-02-07 08:30:00,17.7,-6.6,30.47,WSW,247,1.0,4.0,33,0.00,,,-99.99,WeatherLink 5.5,2013-02-07 13:30:00,
2013-02-07 08:35:00,18.1,-6.9,30.48,WSW,247,0.0,2.0,32,0.00,,,-99.99,WeatherLink 5.5,2013-02-07 13:35:00,
2013-02-07 08:40:00,18.1,-6.2,30.48,WNW,292,1.0,4.0,33,0.00,,,-99.99,WeatherLink 5.5,2013-02-07 13:40:00,
2013-02-07 08:45:00,18.1,-6.2,30.48,WNW,292,1.0,4.0,33,0.00,,,-99.99,WeatherLink 5.5,2013-02-07 13:45:00,
2013-02-07 08:50:00,18.1,-6.9,30.48,West,270,2.0,7.0,32,0.00,,,-99.99,WeatherLink 5.5,2013-02-07 13:50:00,
2013-02-07 08:55:00,18.1,-6.9,30.48,WNW,292,3.0,8.0,32,0.00,,,-99.99,WeatherLink 5.5,2013-02-07 13:55:00,
2013-02-07 09:00:00,18.1,-6.9,30.48,WNW,292,3.0,8.0,32,0.00,,,-99.99,WeatherLink 5.5,2013-02-07 14:00:00,
2013-02-07 09:05:00,18.5,-6.5,30.48,WSW,247,1.0,6.0,32,0.00,,,-99.99,WeatherLink 5.5,2013-02-07 14:05:00,
2013-02-07 09:10:00,18.6,-7.1,30.48,NW,315,1.0,7.0,31,0.00,,,-99.99,WeatherLink 5.5,2013-02-07 14:10:00,
2013-02-07 09:15:00,18.6,-7.1,30.48,NW,315,1.0,7.0,31,0.00,,,-99.99,WeatherLink 5.5,2013-02-07 14:15:00,
2013-02-07 09:20:00,19.2,-6.5,30.49,WNW,292,1.0,6.0,31,0.00,,,-99.99,WeatherLink 5.5,2013-02-07 14:20:00,
2013-02-07 09:25:00,19.6,-6.9,30.49,WSW,247,2.0,9.0,30,0.00,,,-99.99,WeatherLink 5.5,2013-02-07 14:25:00,
2013-02-07 09:30:00,19.6,-6.9,30.49,WSW,247,2.0,9.0,30,0.00,,,-99.99,WeatherLink 5.5,2013-02-07 14:30:00,
2013-02-07 09:35:00,20.0,-7.2,30.49,West,270,1.0,7.0,29,0.00,,,-99.99,WeatherLink 5.5,2013-02-07 14:35:00,
2013-02-07 09:40:00,19.9,-7.3,30.49,West,270,4.0,10.0,29,0.00,,,-99.99,WeatherLink 5.5,2013-02-07 14:40:00,
2013-02-07 09:45:00,19.9,-7.3,30.49,West,270,4.0,10.0,29,0.00,,,-99.99,WeatherLink 5.5,2013-02-07 14:45:00,
2013-02-07 09:50:00,20.5,-8.3,30.50,NW,315,4.0,9.0,27,0.00,,,-99.99,WeatherLink 5.5,2013-02-07 14:50:00,
2013-02-07 09:55:00,20.7,-8.8,30.50,WSW,247,4.0,9.0,26,0.00,,,-99.99,WeatherLink 5.5,2013-02-07 14:55:00,
2013-02-07 10:00:00,20.7,-8.8,30.50,WSW,247,4.0,9.0,26,0.00,,,-99.99,WeatherLink 5.5,2013-02-07 15:00:00,
2013-02-07 10:05:00,21.1,-9.3,30.50,SW,225,2.0,9.0,25,0.00,,,-99.99,WeatherLink 5.5,2013-02-07 15:05:00,
2013-02-07 10:10:00,21.6,-8.9,30.50,WNW,292,1.0,6.0,25,0.00,,,-99.99,WeatherLink 5.5,2013-02-07 15:10:00,
2013-02-07 10:15:00,21.6,-8.9,30.50,WNW,292,1.0,6.0,25,0.00,,,-99.99,WeatherLink 5.5,2013-02-07 15:15:00,
2013-02-07 10:20:00,21.5,-9.8,30.50,SW,225,7.0,14.0,24,0.00,,,-99.99,WeatherLink 5.5,2013-02-07 15:20:00,
2013-02-07 10:25:00,21.6,-9.7,30.50,West,270,2.0,7.0,24,0.00,,,-99.99,WeatherLink 5.5,2013-02-07 15:25:00,
2013-02-07 10:30:00,21.6,-9.7,30.50,West,270,2.0,7.0,24,0.00,,,-99.99,WeatherLink 5.5,2013-02-07 15:30:00,
2013-02-07 10:35:00,21.8,-10.4,30.50,WNW,292,4.0,9.0,23,0.00,,,-99.99,WeatherLink 5.5,2013-02-07 15:35:00,
2013-02-07 10:40:00,22.1,-10.1,30.50,WSW,247,4.0,9.0,23,0.00,,,-99.99,WeatherLink 5.5,2013-02-07 15:40:00,
2013-02-07 10:45:00,22.1,-10.1,30.50,WSW,247,4.0,9.0,23,0.00,,,-99.99,WeatherLink 5.5,2013-02-07 15:45:00,
2013-02-07 10:50:00,22.2,-10.1,30.50,NW,315,1.0,6.0,23,0.00,,,-99.99,WeatherLink 5.5,2013-02-07 15:50:00,
2013-02-07 10:55:00,22.7,-9.6,30.50,SW,225,4.0,9.0,23,0.00,,,-99.99,WeatherLink 5.5,2013-02-07 15:55:00,
2013-02-07 11:00:00,22.7,-9.6,30.50,SW,225,4.0,9.0,23,0.00,,,-99.99,WeatherLink 5.5,2013-02-07 16:00:00,
2013-02-07 11:05:00,23.3,-11.0,30.50,WNW,292,4.0,9.0,21,0.00,,,-99.99,WeatherLink 5.5,2013-02-07 16:05:00,
2013-02-07 11:10:00,23.0,-11.2,30.50,WNW,292,4.0,9.0,21,0.00,,,-99.99,WeatherLink 5.5,2013-02-07 16:10:00,
2013-02-07 11:15:00,23.0,-11.2,30.50,WNW,292,4.0,9.0,21,0.00,,,-99.99,WeatherLink 5.5,2013-02-07 16:15:00,
2013-02-07 11:20:00,23.5,-9.8,30.50,WNW,292,3.0,8.0,22,0.00,,,-99.99,WeatherLink 5.5,2013-02-07 16:20:00,
2013-02-07 11:25:00,23.8,-10.5,30.50,SW,225,2.0,8.0,21,0.00,,,-99.99,WeatherLink 5.5,2013-02-07 16:25:00,
2013-02-07 11:30:00,23.8,-10.5,30.50,SW,225,2.0,8.0,21,0.00,,,-99.99,WeatherLink 5.5,2013-02-07 16:30:00,
2013-02-07 11:35:00,23.8,-10.5,30.49,NW,315,4.0,8.0,21,0.00,,,-99.99,WeatherLink 5.5,2013-02-07 16:35:00,
2013-02-07 11:40:00,23.5,-10.8,30.49,West,270,2.0,8.0,21,0.00,,,-99.99,WeatherLink 5.5,2013-02-07 16:40:00,
2013-02-07 11:45:00,23.5,-10.8,30.49,West,270,2.0,8.0,21,0.00,,,-99.99,WeatherLink 5.5,2013-02-07 16:45:00,
2013-02-07 11:50:00,24.5,-9.9,30.49,NNE,22,3.0,11.0,21,0.00,,,-99.99,WeatherLink 5.5,2013-02-07 16:50:00,
2013-02-07 11:55:00,25.4,-9.2,30.49,NNW,337,1.0,4.0,21,0.00,,,-99.99,WeatherLink 5.5,2013-02-07 16:55:00,
2013-02-07 12:00:00,25.4,-9.2,30.49,NNW,337,1.0,4.0,21,0.00,,,-99.99,WeatherLink 5.5,2013-02-07 17:00:00,
2013-02-07 12:05:00,25.3,-10.3,30.48,NW,315,2.0,9.0,20,0.00,,,-99.99,WeatherLink 5.5,2013-02-07 17:05:00,
2013-02-07 12:10:00,25.3,-9.3,30.48,West,270,1.0,8.0,21,0.00,,,-99.99,WeatherLink 5.5,2013-02-07 17:10:00,
2013-02-07 12:15:00,25.3,-9.3,30.48,West,270,1.0,8.0,21,0.00,,,-99.99,WeatherLink 5.5,2013-02-07 17:15:00,
2013-02-07 12:20:00,25.8,-9.8,30.47,West,270,4.0,10.0,20,0.00,,,-99.99,WeatherLink 5.5,2013-02-07 17:20:00,
2013-02-07 12:25:00,26.0,-9.7,30.47,WNW,292,2.0,8.0,20,0.00,,,-99.99,WeatherLink 5.5,2013-02-07 17:25:00,
2013-02-07 12:30:00,26.0,-9.7,30.47,WNW,292,2.0,8.0,20,0.00,,,-99.99,WeatherLink 5.5,2013-02-07 17:30:00,
2013-02-07 12:35:00,27.2,-9.7,30.46,North,0,1.0,6.0,19,0.00,,,-99.99,WeatherLink 5.5,2013-02-07 17:35:00,
2013-02-07 12:40:00,26.7,-11.2,30.46,WSW,247,5.0,10.0,18,0.00,,,-99.99,WeatherLink 5.5,2013-02-07 17:40:00,
2013-02-07 12:45:00,26.7,-11.2,30.46,WSW,247,5.0,10.0,18,0.00,,,-99.99,WeatherLink 5.5,2013-02-07 17:45:00,
2013-02-07 12:50:00,26.1,-10.6,30.46,WSW,247,6.0,11.0,19,0.00,,,-99.99,WeatherLink 5.5,2013-02-07 17:50:00,
2013-02-07 12:55:00,26.3,-10.5,30.46,WNW,292,4.0,11.0,19,0.00,,,-99.99,WeatherLink 5.5,2013-02-07 17:55:00,
2013-02-07 13:00:00,26.3,-10.5,30.46,WNW,292,4.0,11.0,19,0.00,,,-99.99,WeatherLink 5.5,2013-02-07 18:00:00,
2013-02-07 13:05:00,26.7,-11.2,30.46,NW,315,3.0,11.0,18,0.00,,,-99.99,WeatherLink 5.5,2013-02-07 18:05:00,
2013-02-07 13:10:00,27.2,-9.7,30.46,West,270,3.0,10.0,19,0.00,,,-99.99,WeatherLink 5.5,2013-02-07 18:10:00,
2013-02-07 13:15:00,27.2,-9.7,30.46,West,270,3.0,10.0,19,0.00,,,-99.99,WeatherLink 5.5,2013-02-07 18:15:00,
2013-02-07 13:20:00,27.8,-9.2,30.46,NNE,22,1.0,7.0,19,0.00,,,-99.99,WeatherLink 5.5,2013-02-07 18:20:00,
2013-02-07 13:25:00,28.7,-10.7,30.46,West,270,1.0,9.0,17,0.00,,,-99.99,WeatherLink 5.5,2013-02-07 18:25:00,
2013-02-07 13:30:00,28.7,-10.7,30.46,West,270,1.0,9.0,17,0.00,,,-99.99,WeatherLink 5.5,2013-02-07 18:30:00,
2013-02-07 13:35:00,27.6,-9.4,30.45,NW,315,1.0,6.0,19,0.00,,,-99.99,WeatherLink 5.5,2013-02-07 18:35:00,
2013-02-07 13:40:00,28.5,-8.6,30.45,NE,45,0.0,2.0,19,0.00,,,-99.99,WeatherLink 5.5,2013-02-07 18:40:00,
2013-02-07 13:45:00,28.5,-8.6,30.45,NE,45,0.0,2.0,19,0.00,,,-99.99,WeatherLink 5.5,2013-02-07 18:45:00,
2013-02-07 13:50:00,28.4,-11.0,30.45,WSW,247,2.0,7.0,17,0.00,,,-99.99,WeatherLink 5.5,2013-02-07 18:50:00,
2013-02-07 13:55:00,28.1,-10.1,30.45,West,270,3.0,7.0,18,0.00,,,-99.99,WeatherLink 5.5,2013-02-07 18:55:00,
2013-02-07 14:00:00,28.1,-10.1,30.45,West,270,3.0,7.0,18,0.00,,,-99.99,WeatherLink 5.5,2013-02-07 19:00:00,
2013-02-07 14:05:00,28.1,-11.2,30.44,NNW,337,2.0,7.0,17,0.00,,,-99.99,WeatherLink 5.5,2013-02-07 19:05:00,
2013-02-07 14:10:00,28.2,-11.1,30.44,WNW,292,2.0,7.0,17,0.00,,,-99.99,WeatherLink 5.5,2013-02-07 19:10:00,
2013-02-07 14:15:00,28.2,-11.1,30.44,WNW,292,2.0,7.0,17,0.00,,,-99.99,WeatherLink 5.5,2013-02-07 19:15:00,
2013-02-07 14:20:00,28.5,-10.9,30.43,NW,315,1.0,4.0,17,0.00,,,-99.99,WeatherLink 5.5,2013-02-07 19:20:00,
2013-02-07 14:25:00,28.7,-9.6,30.43,ENE,67,1.0,7.0,18,0.00,,,-99.99,WeatherLink 5.5,2013-02-07 19:25:00,
2013-02-07 14:30:00,28.7,-9.6,30.43,ENE,67,1.0,7.0,18,0.00,,,-99.99,WeatherLink 5.5,2013-02-07 19:30:00,
2013-02-07 14:35:00,29.4,-9.0,30.43,NNE,22,1.0,4.0,18,0.00,,,-99.99,WeatherLink 5.5,2013-02-07 19:35:00,
2013-02-07 14:40:00,29.1,-10.4,30.43,West,270,1.0,8.0,17,0.00,,,-99.99,WeatherLink 5.5,2013-02-07 19:40:00,
2013-02-07 14:45:00,29.1,-10.4,30.43,West,270,1.0,8.0,17,0.00,,,-99.99,WeatherLink 5.5,2013-02-07 19:45:00,
2013-02-07 14:50:00,28.1,-10.1,30.44,ENE,67,1.0,6.0,18,0.00,,,-99.99,WeatherLink 5.5,2013-02-07 19:50:00,
2013-02-07 14:55:00,27.8,-10.3,30.44,NE,45,1.0,6.0,18,0.00,,,-99.99,WeatherLink 5.5,2013-02-07 19:55:00,
2013-02-07 15:00:00,27.8,-10.3,30.44,NE,45,1.0,6.0,18,0.00,,,-99.99,WeatherLink 5.5,2013-02-07 20:00:00,
2013-02-07 15:05:00,27.2,-9.7,30.44,NE,45,1.0,6.0,19,0.00,,,-99.99,WeatherLink 5.5,2013-02-07 20:05:00,
2013-02-07 15:10:00,27.0,-9.9,30.44,NE,45,0.0,2.0,19,0.00,,,-99.99,WeatherLink 5.5,2013-02-07 20:10:00,
2013-02-07 15:15:00,27.0,-9.9,30.44,NE,45,0.0,2.0,19,0.00,,,-99.99,WeatherLink 5.5,2013-02-07 20:15:00,
2013-02-07 15:20:00,26.6,-10.2,30.44,NE,45,1.0,6.0,19,0.00,,,-99.99,WeatherLink 5.5,2013-02-07 20:20:00,
2013-02-07 15:25:00,26.7,-10.1,30.44,NE,45,1.0,4.0,19,0.00,,,-99.99,WeatherLink 5.5,2013-02-07 20:25:00,
2013-02-07 15:30:00,26.7,-10.1,30.44,NE,45,1.0,4.0,19,0.00,,,-99.99,WeatherLink 5.5,2013-02-07 20:30:00,
2013-02-07 15:35:00,26.4,-10.4,30.44,ENE,67,1.0,4.0,19,0.00,,,-99.99,WeatherLink 5.5,2013-02-07 20:35:00,
2013-02-07 15:40:00,26.3,-10.5,30.44,ENE,67,0.0,4.0,19,0.00,,,-99.99,WeatherLink 5.5,2013-02-07 20:40:00,
2013-02-07 15:45:00,26.3,-10.5,30.44,ENE,67,0.0,4.0,19,0.00,,,-99.99,WeatherLink 5.5,2013-02-07 20:45:00,
2013-02-07 15:50:00,26.4,-10.4,30.44,ENE,67,0.0,2.0,19,0.00,,,-99.99,WeatherLink 5.5,2013-02-07 20:50:00,
2013-02-07 15:55:00,26.4,-10.4,30.44,ENE,67,0.0,2.0,19,0.00,,,-99.99,WeatherLink 5.5,2013-02-07 20:55:00,
2013-02-07 16:00:00,26.4,-10.4,30.44,ENE,67,0.0,2.0,19,0.00,,,-99.99,WeatherLink 5.5,2013-02-07 21:00:00,
2013-02-07 16:05:00,26.7,-10.1,30.44,ENE,67,1.0,4.0,19,0.00,,,-99.99,WeatherLink 5.5,2013-02-07 21:05:00,
2013-02-07 16:10:00,26.4,-10.4,30.44,ENE,67,1.0,4.0,19,0.00,,,-99.99,WeatherLink 5.5,2013-02-07 21:10:00,
2013-02-07 16:15:00,26.4,-10.4,30.44,ENE,67,1.0,4.0,19,0.00,,,-99.99,WeatherLink 5.5,2013-02-07 21:15:00,
2013-02-07 16:20:00,26.3,-10.5,30.44,NE,45,0.0,4.0,19,0.00,,,-99.99,WeatherLink 5.5,2013-02-07 21:20:00,
2013-02-07 16:25:00,26.3,-10.5,30.44,NE,45,0.0,2.0,19,0.00,,,-99.99,WeatherLink 5.5,2013-02-07 21:25:00,
2013-02-07 16:30:00,26.3,-10.5,30.44,NE,45,0.0,2.0,19,0.00,,,-99.99,WeatherLink 5.5,2013-02-07 21:30:00,
2013-02-07 16:35:00,26.3,-9.4,30.44,NE,45,0.0,2.0,20,0.00,,,-99.99,WeatherLink 5.5,2013-02-07 21:35:00,
2013-02-07 16:40:00,26.1,-9.6,30.44,NE,45,0.0,4.0,20,0.00,,,-99.99,WeatherLink 5.5,2013-02-07 21:40:00,
2013-02-07 16:45:00,26.1,-9.6,30.44,NE,45,0.0,4.0,20,0.00,,,-99.99,WeatherLink 5.5,2013-02-07 21:45:00,
2013-02-07 16:50:00,25.8,-9.8,30.44,ENE,67,1.0,6.0,20,0.00,,,-99.99,WeatherLink 5.5,2013-02-07 21:50:00,
2013-02-07 16:55:00,25.8,-9.8,30.44,NE,45,0.0,4.0,20,0.00,,,-99.99,WeatherLink 5.5,2013-02-07 21:55:00,
2013-02-07 17:00:00,25.8,-9.8,30.44,NE,45,0.0,4.0,20,0.00,,,-99.99,WeatherLink 5.5,2013-02-07 22:00:00,
2013-02-07 17:05:00,25.7,-9.9,30.43,North,-999,0.0,0.0,20,0.00,,,-99.99,WeatherLink 5.5,2013-02-07 22:05:00,
2013-02-07 17:10:00,25.7,-8.9,30.43,North,-999,0.0,0.0,21,0.00,,,-99.99,WeatherLink 5.5,2013-02-07 22:10:00,
2013-02-07 17:15:00,25.7,-8.9,30.43,North,-999,0.0,0.0,21,0.00,,,-99.99,WeatherLink 5.5,2013-02-07 22:15:00,
2013-02-07 17:20:00,25.7,-9.9,30.44,NE,45,0.0,1.0,20,0.00,,,-99.99,WeatherLink 5.5,2013-02-07 22:20:00,
2013-02-07 17:25:00,25.7,-8.9,30.44,North,-999,0.0,0.0,21,0.00,,,-99.99,WeatherLink 5.5,2013-02-07 22:25:00,
2013-02-07 17:30:00,25.7,-8.9,30.44,North,-999,0.0,0.0,21,0.00,,,-99.99,WeatherLink 5.5,2013-02-07 22:30:00,
2013-02-07 17:35:00,25.7,-8.9,30.45,North,-999,0.0,0.0,21,0.00,,,-99.99,WeatherLink 5.5,2013-02-07 22:35:00,
2013-02-07 17:40:00,25.5,-9.1,30.45,North,-999,0.0,0.0,21,0.00,,,-99.99,WeatherLink 5.5,2013-02-07 22:40:00,
2013-02-07 17:45:00,25.5,-9.1,30.45,North,-999,0.0,0.0,21,0.00,,,-99.99,WeatherLink 5.5,2013-02-07 22:45:00,
2013-02-07 17:50:00,25.5,-9.1,30.45,North,-999,0.0,0.0,21,0.00,,,-99.99,WeatherLink 5.5,2013-02-07 22:50:00,
2013-02-07 17:55:00,25.5,-9.1,30.45,NE,45,0.0,1.0,21,0.00,,,-99.99,WeatherLink 5.5,2013-02-07 22:55:00,
2013-02-07 18:00:00,25.5,-9.1,30.45,NE,45,0.0,1.0,21,0.00,,,-99.99,WeatherLink 5.5,2013-02-07 23:00:00,
2013-02-07 18:05:00,25.4,-9.2,30.45,NE,45,0.0,2.0,21,0.00,,,-99.99,WeatherLink 5.5,2013-02-07 23:05:00,
2013-02-07 18:10:00,25.4,-10.2,30.45,NE,45,1.0,6.0,20,0.00,,,-99.99,WeatherLink 5.5,2013-02-07 23:10:00,
2013-02-07 18:15:00,25.4,-10.2,30.45,NE,45,1.0,6.0,20,0.00,,,-99.99,WeatherLink 5.5,2013-02-07 23:15:00,
2013-02-07 18:20:00,25.3,-10.3,30.46,NE,45,0.0,2.0,20,0.00,,,-99.99,WeatherLink 5.5,2013-02-07 23:20:00,
2013-02-07 18:25:00,25.3,-9.3,30.46,NE,45,0.0,1.0,21,0.00,,,-99.99,WeatherLink 5.5,2013-02-07 23:25:00,
2013-02-07 18:30:00,25.3,-9.3,30.46,NE,45,0.0,1.0,21,0.00,,,-99.99,WeatherLink 5.5,2013-02-07 23:30:00,
2013-02-07 18:35:00,25.1,-9.4,30.47,NE,45,0.0,4.0,21,0.00,,,-99.99,WeatherLink 5.5,2013-02-07 23:35:00,
2013-02-07 18:40:00,25.1,-10.4,30.47,NE,45,0.0,4.0,20,0.00,,,-99.99,WeatherLink 5.5,2013-02-07 23:40:00,
2013-02-07 18:45:00,25.1,-10.4,30.47,NE,45,0.0,4.0,20,0.00,,,-99.99,WeatherLink 5.5,2013-02-07 23:45:00,
2013-02-07 18:50:00,25.0,-9.5,30.48,NE,45,0.0,1.0,21,0.00,,,-99.99,WeatherLink 5.5,2013-02-07 23:50:00,
2013-02-07 18:55:00,25.0,-9.5,30.48,North,-999,0.0,0.0,21,0.00,,,-99.99,WeatherLink 5.5,2013-02-07 23:55:00,
2013-02-07 19:00:00,25.0,-9.5,30.48,North,-999,0.0,0.0,21,0.00,,,-99.99,WeatherLink 5.5,2013-02-08 00:00:00,
2013-02-07 19:05:00,24.8,-10.7,30.47,NE,45,1.0,6.0,20,0.00,,,-99.99,WeatherLink 5.5,2013-02-08 00:05:00,
2013-02-07 19:10:00,24.7,-10.8,30.47,NNE,22,1.0,6.0,20,0.00,,,-99.99,WeatherLink 5.5,2013-02-08 00:10:00,
2013-02-07 19:15:00,24.7,-10.8,30.47,NNE,22,1.0,6.0,20,0.00,,,-99.99,WeatherLink 5.5,2013-02-08 00:15:00,
2013-02-07 19:20:00,24.7,-9.8,30.48,NE,45,0.0,1.0,21,0.00,,,-99.99,WeatherLink 5.5,2013-02-08 00:20:00,
2013-02-07 19:25:00,24.7,-10.8,30.48,NE,45,0.0,4.0,20,0.00,,,-99.99,WeatherLink 5.5,2013-02-08 00:25:00,
2013-02-07 19:30:00,24.7,-10.8,30.48,NE,45,0.0,4.0,20,0.00,,,-99.99,WeatherLink 5.5,2013-02-08 00:30:00,
2013-02-07 19:35:00,24.5,-10.9,30.48,NE,45,1.0,7.0,20,0.00,,,-99.99,WeatherLink 5.5,2013-02-08 00:35:00,
2013-02-07 19:40:00,24.5,-12.0,30.48,NE,45,0.0,4.0,19,0.00,,,-99.99,WeatherLink 5.5,2013-02-08 00:40:00,
2013-02-07 19:45:00,24.5,-12.0,30.48,NE,45,0.0,4.0,19,0.00,,,-99.99,WeatherLink 5.5,2013-02-08 00:45:00,
2013-02-07 19:50:00,24.4,-12.1,30.47,NE,45,1.0,6.0,19,0.00,,,-99.99,WeatherLink 5.5,2013-02-08 00:50:00,
2013-02-07 19:55:00,24.4,-12.1,30.47,ENE,67,0.0,2.0,19,0.00,,,-99.99,WeatherLink 5.5,2013-02-08 00:55:00,
2013-02-07 20:00:00,24.4,-12.1,30.47,ENE,67,0.0,2.0,19,0.00,,,-99.99,WeatherLink 5.5,2013-02-08 01:00:00,
2013-02-07 20:05:00,24.4,-13.1,30.47,NE,45,1.0,6.0,18,0.00,,,-99.99,WeatherLink 5.5,2013-02-08 01:05:00,
2013-02-07 20:10:00,24.2,-13.3,30.47,NE,45,1.0,4.0,18,0.00,,,-99.99,WeatherLink 5.5,2013-02-08 01:10:00,
2013-02-07 20:15:00,24.2,-13.3,30.47,NE,45,1.0,4.0,18,0.00,,,-99.99,WeatherLink 5.5,2013-02-08 01:15:00,
2013-02-07 20:20:00,24.2,-12.2,30.47,NE,45,0.0,6.0,19,0.00,,,-99.99,WeatherLink 5.5,2013-02-08 01:20:00,
2013-02-07 20:25:00,24.2,-14.4,30.47,NE,45,0.0,4.0,17,0.00,,,-99.99,WeatherLink 5.5,2013-02-08 01:25:00,
2013-02-07 20:30:00,24.2,-14.4,30.47,NE,45,0.0,4.0,17,0.00,,,-99.99,WeatherLink 5.5,2013-02-08 01:30:00,
2013-02-07 20:35:00,24.1,-13.4,30.47,NE,45,0.0,4.0,18,0.00,,,-99.99,WeatherLink 5.5,2013-02-08 01:35:00,
2013-02-07 20:40:00,23.9,-13.5,30.47,NE,45,0.0,2.0,18,0.00,,,-99.99,WeatherLink 5.5,2013-02-08 01:40:00,
2013-02-07 20:45:00,23.9,-13.5,30.47,NE,45,0.0,2.0,18,0.00,,,-99.99,WeatherLink 5.5,2013-02-08 01:45:00,
2013-02-07 20:50:00,23.9,-13.5,30.47,NE,45,0.0,1.0,18,0.00,,,-99.99,WeatherLink 5.5,2013-02-08 01:50:00,
2013-02-07 20:55:00,23.9,-12.5,30.47,NE,45,0.0,1.0,19,0.00,,,-99.99,WeatherLink 5.5,2013-02-08 01:55:00,
2013-02-07 21:00:00,23.9,-12.5,30.47,NE,45,0.0,1.0,19,0.00,,,-99.99,WeatherLink 5.5,2013-02-08 02:00:00,
2013-02-07 21:05:00,23.9,-14.7,30.47,NE,45,0.0,2.0,17,0.00,,,-99.99,WeatherLink 5.5,2013-02-08 02:05:00,
2013-02-07 21:10:00,23.9,-14.7,30.47,NE,45,0.0,1.0,17,0.00,,,-99.99,WeatherLink 5.5,2013-02-08 02:10:00,
2013-02-07 21:15:00,23.9,-14.7,30.47,NE,45,0.0,1.0,17,0.00,,,-99.99,WeatherLink 5.5,2013-02-08 02:15:00,
2013-02-07 21:20:00,23.8,-14.8,30.47,ENE,67,0.0,4.0,17,0.00,,,-99.99,WeatherLink 5.5,2013-02-08 02:20:00,
2013-02-07 21:25:00,23.8,-14.8,30.47,ENE,67,1.0,7.0,17,0.00,,,-99.99,WeatherLink 5.5,2013-02-08 02:25:00,
2013-02-07 21:30:00,23.8,-14.8,30.47,ENE,67,1.0,7.0,17,0.00,,,-99.99,WeatherLink 5.5,2013-02-08 02:30:00,
2013-02-07 21:35:00,23.8,-14.8,30.47,ENE,67,0.0,1.0,17,0.00,,,-99.99,WeatherLink 5.5,2013-02-08 02:35:00,
2013-02-07 21:40:00,23.8,-14.8,30.47,NE,45,1.0,4.0,17,0.00,,,-99.99,WeatherLink 5.5,2013-02-08 02:40:00,
2013-02-07 21:45:00,23.8,-14.8,30.47,NE,45,1.0,4.0,17,0.00,,,-99.99,WeatherLink 5.5,2013-02-08 02:45:00,
2013-02-07 21:50:00,23.6,-14.9,30.46,NE,45,0.0,2.0,17,0.00,,,-99.99,WeatherLink 5.5,2013-02-08 02:50:00,
2013-02-07 21:55:00,23.6,-14.9,30.46,NE,45,0.0,1.0,17,0.00,,,-99.99,WeatherLink 5.5,2013-02-08 02:55:00,
2013-02-07 22:00:00,23.6,-14.9,30.46,NE,45,0.0,1.0,17,0.00,,,-99.99,WeatherLink 5.5,2013-02-08 03:00:00,
2013-02-07 22:05:00,23.6,-14.9,30.46,NNE,22,0.0,2.0,17,0.00,,,-99.99,WeatherLink 5.5,2013-02-08 03:05:00,
2013-02-07 22:10:00,23.6,-13.8,30.46,NNE,22,0.0,1.0,18,0.00,,,-99.99,WeatherLink 5.5,2013-02-08 03:10:00,
2013-02-07 22:15:00,23.6,-13.8,30.46,NNE,22,0.0,1.0,18,0.00,,,-99.99,WeatherLink 5.5,2013-02-08 03:15:00,
2013-02-07 22:20:00,23.5,-13.9,30.46,NNE,22,0.0,1.0,18,0.00,,,-99.99,WeatherLink 5.5,2013-02-08 03:20:00,
2013-02-07 22:25:00,23.5,-15.0,30.46,NNE,22,0.0,2.0,17,0.00,,,-99.99,WeatherLink 5.5,2013-02-08 03:25:00,
2013-02-07 22:30:00,23.5,-15.0,30.46,NNE,22,0.0,2.0,17,0.00,,,-99.99,WeatherLink 5.5,2013-02-08 03:30:00,
2013-02-07 22:35:00,23.5,-13.9,30.46,NNE,22,0.0,2.0,18,0.00,,,-99.99,WeatherLink 5.5,2013-02-08 03:35:00,
2013-02-07 22:40:00,23.5,-13.9,30.46,NNE,22,0.0,1.0,18,0.00,,,-99.99,WeatherLink 5.5,2013-02-08 03:40:00,
2013-02-07 22:45:00,23.5,-13.9,30.46,NNE,22,0.0,1.0,18,0.00,,,-99.99,WeatherLink 5.5,2013-02-08 03:45:00,
2013-02-07 22:50:00,23.5,-12.8,30.46,NNE,22,0.0,1.0,19,0.00,,,-99.99,WeatherLink 5.5,2013-02-08 03:50:00,
2013-02-07 22:55:00,23.5,-12.8,30.46,NNE,22,0.0,1.0,19,0.00,,,-99.99,WeatherLink 5.5,2013-02-08 03:55:00,
2013-02-07 23:00:00,23.5,-11.8,30.45,NNE,22,0.0,1.0,20,0.00,,,-99.99,WeatherLink 5.5,2013-02-08 04:00:00,
2013-02-07 23:01:00,23.5,-12.8,30.46,NNE,22,0.0,1.0,19,0.00,,,-99.99,WeatherLink 5.5,2013-02-08 04:01:00,
2013-02-07 23:05:00,23.5,-12.8,30.45,NE,45,0.0,2.0,19,0.00,,,-99.99,WeatherLink 5.5,2013-02-08 04:05:00,
2013-02-07 23:10:00,23.5,-12.8,30.45,North,-999,0.0,0.0,19,0.00,,,-99.99,WeatherLink 5.5,2013-02-08 04:10:00,
2013-02-07 23:15:00,23.5,-12.8,30.45,North,-999,0.0,0.0,19,0.00,,,-99.99,WeatherLink 5.5,2013-02-08 04:15:00,
2013-02-07 23:20:00,23.5,-12.8,30.46,North,-999,0.0,0.0,19,0.00,,,-99.99,WeatherLink 5.5,2013-02-08 04:20:00,
2013-02-07 23:25:00,23.5,-11.8,30.46,NE,45,0.0,1.0,20,0.00,,,-99.99,WeatherLink 5.5,2013-02-08 04:25:00,
2013-02-07 23:30:00,23.5,-11.8,30.46,NE,45,0.0,1.0,20,0.00,,,-99.99,WeatherLink 5.5,2013-02-08 04:30:00,
2013-02-07 23:35:00,23.5,-10.8,30.46,North,-999,0.0,0.0,21,0.00,,,-99.99,WeatherLink 5.5,2013-02-08 04:35:00,
2013-02-07 23:40:00,23.6,-10.7,30.46,North,-999,0.0,0.0,21,0.00,,,-99.99,WeatherLink 5.5,2013-02-08 04:40:00,
2013-02-07 23:45:00,23.6,-10.7,30.46,North,-999,0.0,0.0,21,0.00,,,-99.99,WeatherLink 5.5,2013-02-08 04:45:00,
2013-02-07 23:50:00,23.6,-10.7,30.46,North,-999,0.0,0.0,21,0.00,,,-99.99,WeatherLink 5.5,2013-02-08 04:50:00,
2013-02-07 23:55:00,23.6,-9.8,30.46,North,-999,0.0,0.0,22,0.00,,,-99.99,WeatherLink 5.5,2013-02-08 04:55:00,